sat.trackr.live / text

‹ back to catalog

GONETS-M 11

NORAD 40552 · 2015-020A

PAYLOAD ACTIVE UNKNOWN

§ Identity

Operator
Country
CIS
Launch date
2015-03-31
Launch site
PLMSC
Launch vehicle
Mass (kg)
RCS (m²)
1.64

External: N2YO · Heavens-Above · Gunter

§ Orbital elements

Epoch: 2026-05-25T03:31:44.591232Z

Period
115.86 min
Inclination
82.4879°
Eccentricity
0.0017350
Mean motion
12.42876212 rev/d
Perigee alt
1,480.8 km
Apogee alt
1,508.1 km
Semi-major
7,872.6 km
B*
-9.4624e-5
RAAN
45.3466°
Arg perigee
53.6041°
Mean anomaly
306.6636°
Rev number
50,587

§ Raw data

GONETS-M 111 40552U 15020A   26145.14704388 -.00000003  00000+0 -94624-4 0  99902 40552  82.4879  45.3466 0017350  53.6041 306.6636 12.42876212505879

JSON: /api/v1/satellites/40552 · /tle

For live sub-satellite position, see the globe view (requires WebGL).

§ Visibility from observer

Set your observer location to see the next 7 days of passes ≥ 10°. The values pass through the URL so the page stays shareable.

No JS? Fill the form by hand. The geolocation button needs JavaScript.

§ Radio — SatNOGS DB

ModeDescriptionDownlinkUplink
FM Telemetry 264.981 MHz
FM UHF Unknown 387.062 MHz
FM UHF Unknown 387.625 MHz
FM UHF Unknown 387.837 MHz

4 transmitters · refreshed weekly from db.satnogs.org